User: anonymous   Login
Location: NJAA Observatory
(40.6819°N, 74.8979°W)
Time: 11:12:26
(UTC-05:00)
Language:

Landsat 5 - Orbit

View from above orbital plane
View from above orbital plane
View from above satellite
View from above satellite

Ground track
Ground track

The orbit data is extracted from the following two-line orbital elements,

1 14780U 84021A   15027.85230584  .00001951  00000-0  19337-3 0  5500
2 14780 098.0369 113.9171 0095025 155.5059 326.0189 14.89709795646050
Epoch (UTC): 27 January 2015 20:27:19
Eccentricity: 0.0095025
inclination: 98.0369°
perigee height: 532 km
apogee height: 665 km
right ascension of ascending node: 113.9171°
argument of perigee: 155.5059°
revolutions per day: 14.89709795
mean anomaly at epoch: 326.0189°
orbit number at epoch: 64605

The dashed part of the orbit path shows where the satellite is in the earth's shadow,  

DLR